User: anonymous   Login
Location: Lafig�re
(44.4503°N, 4.0357°E)
Time: 12:45:58
(UTC+00:00)
Language:

Cosmos 1269 Rocket - Orbit

View from above orbital plane
View from above orbital plane
View from above satellite
View from above satellite

Ground track
Ground track

The orbit data is extracted from the following two-line orbital elements,

1 12443U 81041B   20330.63994781 +.00000044 +00000-0 +24719-4 0  9998
2 12443 074.0564 026.0355 0004411 192.7941 167.3100 14.34742014068086
Epoch (UTC): 25 November 2020 15:21:31
Eccentricity: 0.0004411
inclination: 74.0564°
perigee height: 773 km
apogee height: 779 km
right ascension of ascending node: 26.0355°
argument of perigee: 192.7941°
revolutions per day: 14.34742014
mean anomaly at epoch: 167.3100°
orbit number at epoch: 6808

The dashed part of the orbit path shows where the satellite is in the earth's shadow,  

DLR